GW2134 Weather Reports


time (UTC)temp
C
wind
direction
speed
KPH
gust
KPH
rain 1hr
cm
rain 24hr
cm
rain mn
cm
humidity
%
barometer
mb
20260906061620 21 0 0.0 1.6 0.00 0.00 0.00 72 1026.0
20260906060104 21 0 0.0 1.6 0.00 0.00 0.00 73 1025.8
20260906054600 21 0 0.0 3.2 0.00 0.00 0.00 72 1025.7
20260906053101 21 0 0.0 1.6 0.00 0.00 0.00 71 1025.6
20260906051558 21 0 0.0 3.2 0.00 0.00 0.00 70 1025.5
20260906050115 21 0 0.0 6.4 0.00 0.00 0.00 70 1025.5
20260906044556 20 360 1.6 4.8 0.00 0.00 0.00 70 1025.5
20260906043111 20 0 0.0 1.6 0.00 0.00 0.00 71 1025.3
20260906041600 20 0 0.0 1.6 0.00 0.00 0.00 71 1025.2
20260906040116 21 0 0.0 0.0 0.00 0.00 0.00 70 1025.1
20260906034601 21 0 0.0 1.6 0.00 0.00 0.00 70 1025.0
20260906033102 21 355 0.0 4.8 0.00 0.00 0.00 69 1024.8
20260906031611 21 0 0.0 1.6 0.00 0.00 0.00 69 1024.7
20260906030110 21 0 0.0 1.6 0.00 0.00 0.00 69 1024.6
20260906024554 21 0 0.0 1.6 0.00 0.00 0.00 69 1024.7
20260906023131 21 0 0.0 1.6 0.00 0.00 0.00 68 1024.7
20260906021600 21 0 0.0 1.6 0.00 0.00 0.00 69 1024.8
20260906020108 21 0 0.0 1.6 0.00 0.00 0.00 69 1024.6
20260906014626 21 0 0.0 3.2 0.00 0.00 0.00 69 1024.6
20260906013104 21 0 0.0 0.0 0.00 0.00 0.00 70 1024.5
20260906011603 21 0 0.0 0.0 0.00 0.00 0.00 70 1024.5
20260906004607 21 355 0.0 3.2 0.00 0.00 0.00 70 1024.4
20260906003104 21 355 0.0 1.6 0.00 0.00 0.00 71 1024.4
20260906001600 21 0 0.0 3.2 0.00 0.00 0.00 69 1024.5
20260906000107 21 0 0.0 0.0 0.00 0.00 0.00 72 1024.6
20260905234605 21 0 0.0 0.0 0.00 0.00 0.00 72 1024.5
20260905233104 21 0 0.0 0.0 0.00 0.00 0.00 72 1024.5
20260905231559 21 0 0.0 1.6 0.00 0.00 0.00 71 1024.5
20260905230109 21 0 0.0 3.2 0.00 0.00 0.00 71 1024.5
20260905224608 21 0 0.0 1.6 0.00 0.00 0.00 70 1024.5
20260905223100 21 0 0.0 4.8 0.00 0.00 0.00 71 1024.4
20260905221556 21 346 3.2 6.4 0.00 0.00 0.00 71 1024.4
20260905220121 21 0 0.0 1.6 0.00 0.00 0.00 71 1024.3
20260905214600 22 0 0.0 0.0 0.00 0.00 0.00 73 1024.2
20260905213104 22 0 0.0 1.6 0.00 0.00 0.00 73 1024.1
20260905211554 22 0 0.0 3.2 0.00 0.00 0.00 74 1024.0
20260905210104 22 350 0.0 3.2 0.00 0.00 0.00 73 1024.0
20260905204600 22 350 1.6 6.4 0.00 0.00 0.00 72 1024.0
20260905203107 22 355 0.0 3.2 0.00 0.00 0.00 71 1023.9
20260905201603 23 336 1.6 4.8 0.00 0.00 0.00 71 1023.9
20260905194558 23 319 1.6 6.4 0.00 0.00 0.00 71 1023.8
20260905193104 23 319 3.2 6.4 0.00 0.00 0.00 70 1023.7
20260905191604 23 335 1.6 8.0 0.00 0.00 0.00 69 1023.5
20260905190113 23 355 3.2 6.4 0.00 0.00 0.00 69 1023.2
20260905184604 24 336 3.2 9.7 0.00 0.00 0.00 68 1023.1
20260905183125 24 328 3.2 8.0 0.00 0.00 0.00 68 1023.1
20260905181605 24 336 4.8 9.7 0.00 0.00 0.00 67 1022.9
20260905174555 25 336 6.4 9.7 0.00 0.00 0.00 66 1022.7
20260905173103 25 360 4.8 9.7 0.00 0.00 0.00 65 1022.6
20260905171605 26 327 4.8 9.7 0.00 0.00 0.00 64 1022.5
20260905164604 27 5 1.6 4.8 0.00 0.00 0.00 58 1022.4
20260905163055 28 5 1.6 4.8 0.00 0.00 0.00 56 1022.4
20260905161601 28 0 0.0 3.2 0.00 0.00 0.00 55 1022.3
20260905160122 29 343 1.6 9.7 0.00 0.00 0.00 54 1022.3
20260905154556 30 126 0.0 4.8 0.00 0.00 0.00 51 1022.3
20260905153101 30 66 1.6 4.8 0.00 0.00 0.00 51 1022.1
20260905151609 30 0 3.2 12.9 0.00 0.00 0.00 51 1022.1
20260905150057 31 67 4.8 12.9 0.00 0.00 0.00 49 1022.1
20260905144555 31 115 0.0 11.3 0.00 0.00 0.00 47 1022.1
20260905143100 31 110 1.6 11.3 0.00 0.00 0.00 46 1022.2
20260905141601 31 114 3.2 14.5 0.00 0.00 0.00 47 1022.2
20260905140108 31 103 4.8 11.3 0.00 0.00 0.00 47 1022.2
20260905134554 31 89 3.2 14.5 0.00 0.00 0.00 46 1022.4
20260905133102 31 0 3.2 14.5 0.00 0.00 0.00 43 1022.6
20260905131608 31 129 6.4 16.1 0.00 0.00 0.00 43 1022.6
20260905130110 31 120 4.8 14.5 0.00 0.00 0.00 45 1022.7
20260905124603 31 139 4.8 14.5 0.00 0.00 0.00 45 1022.7
20260905123102 31 131 4.8 14.5 0.00 0.00 0.00 44 1022.7
20260905121603 31 134 1.6 8.0 0.00 0.00 0.00 42 1022.7
20260905120113 30 19 6.4 16.1 0.00 0.00 0.00 41 1022.7
20260905114558 31 113 6.4 19.3 0.00 0.00 0.00 37 1022.7
20260905113056 31 111 4.8 14.5 0.00 0.00 0.00 35 1022.7
20260905111613 31 97 4.8 16.1 0.00 0.00 0.00 35 1022.7
20260905110101 31 111 4.8 12.9 0.00 0.00 0.00 34 1022.8
20260905104600 31 336 1.6 16.1 0.00 0.00 0.00 33 1022.7
20260905103056 31 90 6.4 12.9 0.00 0.00 0.00 32 1022.8
20260905101606 31 95 4.8 12.9 0.00 0.00 0.00 30 1022.7
20260905094558 30 151 3.2 12.9 0.00 0.00 0.00 30 1023.0
20260905093102 30 136 4.8 12.9 0.00 0.00 0.00 30 1023.1
20260905091606 30 5 0.0 4.8 0.00 0.00 0.00 30 1023.0
20260905090053 29 198 1.6 9.7 0.00 0.00 0.00 34 1022.8
20260905084618 28 0 1.6 6.4 0.00 0.00 0.00 34 1022.8
20260905083056 28 22 0.0 4.8 0.00 0.00 0.00 33 1022.6
20260905081559 27 0 0.0 4.8 0.00 0.00 0.00 35 1022.4
20260905074605 26 0 0.0 3.2 0.00 0.00 0.00 38 1022.3
20260905073103 26 0 0.0 6.4 0.00 0.00 0.00 39 1022.2
20260905071600 26 101 0.0 8.0 0.00 0.00 0.00 41 1022.1
20260905070105 25 0 0.0 3.2 0.00 0.00 0.00 44 1021.9
20260905064559 23 90 0.0 4.8 0.00 0.00 0.00 46 1021.7
20260905063058 23 86 0.0 3.2 0.00 0.00 0.00 45 1021.5